Content
SEND FEEDBACK

Daily
Averages
Monthly
Summary
United States of America

ST. LOUIS, MISSOURI


Home > North America > United States > Missouri
Elevation: 535 feet     Latitude: 38 45N     Longitude: 090 22W

WEATHER
 
SELECT A DAY
Number of Records: 199,751;   Date Range: 1/1/95 - 10/24/14
 
SHARE

PRINT THIS DATA

[ ← Previous Day ]
WEATHER ALMANAC - MAY 13, 2013
[ Next Day → ]
[ °C ]   °F
Weather ElementAverageHighLow
Temperature58 °F75 °F (5:54 pm)36 °F (5:54 am)
Dewpoint37.2 °F43 °F (10:54 pm)30.9 °F (9:54 am)
Humidity52.3 %93 % (5:54 am)26 % (11:54 am)
Barometer30.14 in30.24 in (8:54 am)30.01 in (11:54 pm)
Wind Speed3 mph10.4 mph (9:54 pm)
Weather ElementAverage
Visibility10 mi
Wind DirectionENE (71.4 °)

Weather ElementTotal
Precipitation---
Heating Degree Days9.5 (Base 65)
Growing Degree Days5.5 (Base 50)
Averaged from 22 records on May 13, 2013
WEATHER CONDITIONS BREAKOUT
WIND DIRECTION BREAKOUT
WEATHER BY HOUR - MAY 13, 2013
[ °C ]   °F
Local TimeTemperatureDewpointHumidityBarometerVisibilityWind DirectionWind SpeedGust SpeedPrecipitationEventsConditions
1:54 AM39.0 °F35.1 °F86 %30.19 in10.0 miCalmClear
2:54 AM39.0 °F35.1 °F86 %30.19 in10.0 miCalmClear
3:54 AM37.0 °F34.0 °F89 %30.19 in10.0 miCalmClear
4:54 AM37.0 °F34.0 °F89 %30.19 in10.0 miCalmClear
5:54 AM36.0 °F34.0 °F93 %30.20 in10.0 miCalmClear
6:54 AM37.9 °F35.1 °F89 %30.22 in10.0 miCalmClear
7:54 AM45.0 °F39.9 °F82 %30.23 in10.0 miCalmClear
8:54 AM55.0 °F41.0 °F59 %30.24 in10.0 miWest (280°)3.5 mphPartly Cloudy
9:54 AM62.1 °F30.9 °F31 %30.23 in10.0 miVariable4.6 mphPartly Cloudy
10:54 AM64.0 °F32.0 °F30 %30.22 in10.0 miCalmClear
11:54 AM66.9 °F30.9 °F26 %30.21 in10.0 miSSW (210°)5.8 mphClear
12:54 PM68.0 °F37.0 °F32 %30.19 in10.0 miSouth (170°)8.1 mphPartly Cloudy
1:54 PM69.8 °F33.8 °F27 %30.16 in10.0 miVariable3.5 mphClear
3:54 PM73.9 °F37.9 °F27 %30.10 in10.0 miSouth (180°)3.5 mphPartly Cloudy
4:54 PM73.9 °F37.9 °F27 %30.08 in10.0 miSSE (150°)5.8 mphClear
5:54 PM75.0 °F37.9 °F26 %30.06 in10.0 miCalmClear
6:54 PM71.6 °F41.0 °F33 %30.05 in10.0 miSSE (150°)3.5 mphScattered Clouds
7:54 PM69.1 °F41.0 °F36 %30.04 in10.0 miSE (140°)5.8 mphScattered Clouds
8:54 PM66.0 °F41.0 °F40 %30.03 in10.0 miSE (140°)5.8 mphScattered Clouds
9:54 PM64.0 °F42.1 °F45 %30.02 in10.0 miSSE (150°)10.4 mphClear
10:54 PM62.1 °F43.0 °F50 %30.02 in10.0 miCalmClear
11:54 PM63.0 °F43.0 °F48 %30.01 in10.0 miVariable4.6 mphClear
Hourly data recorded from KSUS, located miles away from St. Louis, Missouri







STORIES FROM OUR PARTNERS